Location: Unspecified
(0.0000°N, 0.0000°E)
Time: 05:56:27
(UTC+00:00)

Tiros 1 - Pass Details

Date: 07 October 2020
Orbit: 630 x 663 km, 48.4° (Epoch: 28 October)

Event Time Altitude Azimuth Distance (km) Brightness Sun altitude
Rises 20:40:06 0° 304° (WNW) 2,980 11.1 -42.8°
Enters shadow 20:41:06 - 301° (WNW) 2,615 10.8 -43.1°
Reaches altitude 10° 20:42:38 10° 294° (WNW) 2,071 - -43.5°
Maximum altitude 20:46:54 32° 231° (SW) 1,135 - -44.5°
Drops below altitude 10° 20:51:10 10° 168° (SSE) 2,072 - -45.6°
Sets 20:53:43 0° 158° (SSE) 2,983 - -46.2°
